Weather observations for the past three days for
Bogue Field Marine Corps Auxiliary Field
Imperial (Metric)
Date Time (edt) Wind (mph) Vis. (mi.) Weather Sky Cond. Temperature (ºF) Relative Humidity Wind Chill (°F) Heat Index (°F) Pressure Precipitation (in)
Air Dwpt 6 hour altimeter (in) sea level (mb) 1 hr 3 hr 6 hr
Max. Min.
16 09:57 SW 12 G 22 6.00 A Few Clouds with Haze FEW017 87.1 79 77% 101 30.02 1016.9
16 08:57 SW 14 G 22 6.00 Fair with Haze CLR 84.9 78.1 80% 97 30.02 1016.9
16 07:57 SW 7 5.00 Fair with Haze CLR 84 78.1 84 82 82% 95 30.02 1016.9
16 06:57 W 7 5.00 Fair with Haze CLR 82.9 75.9 79% 91 30 1016.3
16 05:57 W 9 G 20 6.00 Fog/Mist CLR 82.9 79 88% 94 29.99 1015.7
16 04:57 SW 10 6.00 Fog/Mist CLR 82.9 80.1 91% 95 29.97 1015.3
16 03:57 SW 13 6.00 Fog/Mist CLR 82.9 81 94% 96 29.97 1015.0
16 02:57 SW 13 6.00 Fog/Mist CLR 82.9 81 94% 96 29.96 1014.8
16 01:57 SW 14 6.00 Fog/Mist CLR 82.9 79 84 82.9 88% 94 29.97 1015.3
16 00:57 SW 16 G 24 6.00 Fog/Mist CLR 84 80.1 88% 97 29.99 1015.8
15 23:57 SW 12 G 21 6.00 Fog/Mist FEW014 84 81 91% 98 29.99 1015.8
15 22:57 SW 10 6.00 Fog/Mist CLR 84 81 91% 98 29.98 1015.5
15 21:57 SW 13 6.00 Fog/Mist CLR 84 80.1 88% 97 29.97 1015.4
15 20:57 SW 14 6.00 Fog/Mist CLR 84 80.1 88% 97 29.96 1015.0
15 19:57 SW 15 G 25 5.00 Fog/Mist FEW012 84 80.1 90 84 88% 97 29.97 1015.3
15 18:57 SW 14 G 23 5.00 Fog/Mist BKN012 84.9 81 88% 100 29.98 1015.7
15 17:57 SW 13 G 25 5.00 Mostly Cloudy with Haze BKN010 84.9 80.1 85% 99 29.96 1014.7
15 16:57 SW 14 G 22 6.00 Mostly Cloudy with Haze BKN010 87.1 81 82% 104 29.96 1014.8
15 15:57 S 16 G 23 6.00 A Few Clouds with Haze FEW010 88 82 83% 108 29.98 1015.6
15 14:57 SW 16 6.00 Thunderstorm Haze CLR 88 81 80% 106 30 1016.3
15 13:57 SW 14 6.00 Fair with Haze CLR 89.1 80.1 89.1 84 75% 106 30.02 1016.9
15 12:57 SW 13 6.00 Fair with Haze CLR 89.1 79 72% 105 30.03 1017.4
15 11:57 SW 12 5.00 A Few Clouds with Haze FEW075 88 79 75% 103 30.04 1017.6
15 10:57 SW 8 6.00 Fair with Haze CLR 88 78.1 73% 102 30.05 1017.8
15 09:57 SW 8 6.00 Fair with Haze CLR 87.1 78.1 75% 100 30.05 1018.0
15 08:57 SW 9 6.00 Fair with Haze CLR 86 78.1 77% 98 30.05 1018.0
15 07:57 W 8 6.00 Fair with Haze CLR 84 78.1 84 82 82% 95 30.05 1018.0
15 06:57 SW 8 5.00 Fog/Mist CLR 82 80.1 94% 93 30.04 1017.4
15 05:57 SW 8 6.00 Fog/Mist CLR 82 80.1 94% 93 30.02 1016.8
15 04:57 SW 8 6.00 Fog/Mist OVC011 82.9 80.1 91% 95 30.01 1016.6
15 03:57 SW 8 6.00 Fog/Mist BKN009 82.9 80.1 91% 95 30.01 1016.5
15 02:57 SW 13 6.00 Fog/Mist BKN011 82.9 80.1 91% 95 30.02 1016.8
15 01:57 SW 12 7.00 A Few Clouds FEW012 82.9 80.1 84 82.9 91% 95 30.04 1017.5
15 00:57 SW 14 6.00 Fog/Mist BKN012 82.9 80.1 91% 95 30.05 1018.1
14 23:57 SW 12 6.00 Fog/Mist SCT010 82.9 80.1 91% 95 30.06 1018.2
14 22:57 SW 10 6.00 Fog/Mist FEW009 82.9 80.1 91% 95 30.06 1018.1
14 21:57 SW 12 7.00 Fair CLR 82.9 80.1 91% 95 30.06 1018.3
14 20:57 SW 10 7.00 Fair CLR 84 80.1 88% 97 30.05 1018.0
14 19:57 SW 15 6.00 Fair with Haze CLR 84 79 91 84 85% 96 30.05 1017.8
14 18:57 SW 10 6.00 Fair with Haze CLR 86 79 80% 100 30.04 1017.6
14 17:57 SW 16 6.00 Fair with Haze CLR 87.1 78.1 75% 100 30.03 1017.2
14 16:57 SW 15 G 23 6.00 Fair with Haze CLR 88 79 75% 103 30.04 1017.5
14 15:57 SW 13 6.00 Fair with Haze CLR 89.1 80.1 75% 106 30.05 1018.0
14 14:57 SW 13 6.00 Fair with Haze CLR 90 79 70% 106 30.07 1018.7
14 13:57 S 12 6.00 Fair with Haze CLR 89.1 78.1 91 82 70% 103 30.09 1019.3
14 12:57 SW 10 6.00 Fair with Haze CLR 89.1 79 72% 105 30.1 1019.6
14 11:57 SW 12 6.00 Fair with Haze CLR 90 79 70% 106 30.12 1020.1
14 10:57 W 6 7.00 Fair CLR 90 75.9 63% 102 30.12 1020.2
14 09:57 W 6 6.00 Fair with Haze CLR 87.1 77 72% 99 30.12 1020.4
14 08:57 W 8 6.00 Fair with Haze CLR 84 75.9 77% 93 30.12 1020.4
14 07:57 W 7 6.00 Fair with Haze CLR 82 75.9 82 78.1 82% 89 30.12 1020.1
14 06:57 SW 3 6.00 Fog/Mist CLR 79 75.9 90% 83 30.11 1019.9
14 05:57 W 6 7.00 Fair CLR 79 75.9 90% 83 30.09 1019.4
14 04:57 W 6 7.00 Fair CLR 79 75.9 90% 83 30.09 1019.4
14 03:57 W 5 7.00 Mostly Cloudy BKN046 BKN060 80.1 77 90% 86 30.1 1019.6
14 02:57 W 5 7.00 Fair CLR 80.1 78.1 94% 86 30.1 1019.7
14 01:57 W 5 6.00 Fog/Mist CLR 81 78.1 82.9 81 91% 89 30.13 1020.5
14 00:57 W 7 7.00 Fair CLR 81 78.1 91% 89 30.13 1020.7
13 23:57 W 10 7.00 Fair CLR 82 78.1 88% 91 30.14 1021.1
13 22:57 SW 12 7.00 Fair CLR 82 78.1 88% 91 30.14 1020.9
13 21:57 SW 9 7.00 A Few Clouds FEW011 82 78.1 88% 91 30.14 1020.8
13 20:57 SW 10 7.00 A Few Clouds FEW012 82 78.1 88% 91 30.13 1020.7
13 19:57 SW 12 6.00 Partly Cloudy with Haze SCT013 82.9 77 86 82 82% 92 30.14 1021.0
13 18:57 SW 12 7.00 Fair CLR 82.9 75.9 79% 91 30.13 1020.5
13 17:57 S 14 7.00 Partly Cloudy SCT015 82.9 77 82% 92 30.12 1020.3
13 16:57 SW 14 7.00 Thunderstorm FEW070 84.9 75.9 75% 94 30.13 1020.6
13 15:57 SW 14 7.00 A Few Clouds FEW015 84.9 77 77% 95 30.14 1021.0
13 14:57 SW 12 7.00 A Few Clouds FEW015 84.9 78.1 80% 97 30.14 1020.9
13 13:57 SW 8 6.00 Partly Cloudy with Haze SCT070 84 78.1 87.1 79 82% 95 30.16 1021.5 0.03
13 12:57 SW 16 G 23 7.00 A Few Clouds FEW017 86 78.1 77% 98 30.17 1022.0
13 11:57 SW 10 7.00 Overcast SCT018 BKN037 OVC048 84.9 79 82% 98 30.18 1022.4
13 10:57 SW 12 6.00 Mostly Cloudy with Haze SCT018 BKN024 BKN033 82 77 85% 90 30.18 1022.5 0.03
Date Time (edt) Wind (mph) Vis. (mi.) Weather Sky Cond. Air Dwpt Max. Min. Relative Humidity Wind Chill (°F) Heat Index (°F) altimeter (in) sea level (mb) 1 hr 3 hr 6 hr
6 hour
Temperature (ºF) Pressure Precipitation (in)